Regional Weather Roundup
Issued by NWS Newport/Morehead, NC

Current Version | Previous Version | Graphics & Text | Print | Product List | Glossary Off
Versions: 1 2 3 4 5 6 7 8 9 10 11 12 13 14 15 16 17 18 19 20 21 22 23 24 25 26 27 28 29 30 31 32 33 34 35 36 37 38 39 40 41 42 43 44 45 46 47 48 49 50

000
ASUS42 KMHX 310613
RWRMHX
WEATHER ROUNDUP FOR EASTERN NORTH CAROLINA
NATIONAL WEATHER SERVICE NEWPORT/MOREHEAD CITY NC
200 AM EDT SUN JUL 31 2016

NOTE: "FAIR" INDICATES FEW OR NO CLOUDS BELOW 12,000 FEET
WITH NO SIGNIFICANT WEATHER AND/OR OBSTRUCTIONS TO VISIBILITY

NCZ015>017-031-032-045>047-102-103-310700-
NORTH COAST

CITY           SKY/WX    TMP DP  RH WIND       PRES   REMARKS
EDENTON        CLOUDY    80  80 100 CALM      29.96F
ELIZABETH CITY CLOUDY    77  75  93 SW6       29.95F
KITTY HAWK     MOCLDY    82  82 100 SW10      29.94F
MANTEO         CLOUDY    82  81  97 W12       29.95F

$$

NCZ045>047-081-094-103-104-310700-
CENTRAL COAST

CITY           SKY/WX    TMP DP  RH WIND       PRES   REMARKS
FRISCO         PTCLDY    80  80 100 SW10      29.97F

$$

NCZ095-097-098-100-101-310700-
SOUTHERN COAST

CITY           SKY/WX    TMP DP  RH WIND       PRES   REMARKS
BEAUFORT       PTCLDY    83  81  94 SW14      30.00S
CEDAR ISLAND   NOT AVBL
JACKSONVILLE   PTCLDY    79  74  84 SW6       29.99F
PINEY ISLAND   NOT AVBL
WILMINGTON     MOCLDY    80  76  87 S6        30.01F


$$

NCZ011>013-027>030-043-044-078>080-089-090>093-098-310700-
COASTAL PLAIN

CITY           SKY/WX    TMP DP  RH WIND       PRES   REMARKS
AHOSKIE        CLOUDY    73  72  98 CALM      29.95F
CLINTON        MOCLDY    76  75  97 CALM      30.00S
ELIZABETHTOWN  CLOUDY    77  73  88 S3        30.00F
GOLDSBORO      CLOUDY    80  76  90 S3        29.97S
GREENVILLE     CLOUDY    77  77 100 SW5       29.99F
HAVELOCK       CLEAR     81  78  91 SW9       30.01S
KENANSVILLE    NOT AVBL
KINSTON        CLOUDY    78  75  90 SW9       29.99S
NEW BERN       PTCLDY    80  75  84 S9        30.00S
RICHLANDS      NOT AVBL
ROCKY MOUNT    CLOUDY    75  75 100 S3        29.97F
WASHINGTON     CLOUDY    76  75  98 SW3       29.98S
WHITEVILLE     CLOUDY    78  73  86 S3        30.00F

$$

AMZ130-135-150-152-154-156-158-170-250-252-270-ANZ085-086-088-633-658-670-310700-
MARINE OBSERVATIONS

STATION/POSITION TIME  TEMP    WIND        PRES    WAVE   SWELL
                       AIR SEA DIR/SP/G            HT/PER HT/PER
                 (UTC) (F)     (DEG/KT/KT) (MB)    (FT/S) (FT/S)
CHESAPEAKE LIGHT NOT AVBL
64 E VA BEACH    0550   83 83  220/ 17/ 21 1012.7    2/ 6   2/ 6
DUCK             0500   83 71  230/ 14/ 19 1013.7
2 E DUCK         0511      79                N/A     2/13
OREGON INLET     0500   84 79  210/ 17/ 20 1014.7
13E OREGON INLT  0600      78                N/A     3/ 4   2/12
HATTERAS CG      0500   81 83  220/  8/ 12 1015.6
DIAMOND BUOY     0550   85 84  210/ 19/ 23 1014.9    4/ 5   2/10
CAPE LOOKOUT     0600   84     210/ 10/ 12 1015.6
BEAUFORT LAB     0500   84 83  210/  8/ 13 1015.4
30 SE NEW RVR IN 0508   85 85  210/ 12/ 16 1016.3
30 SE NEW RVR IN 0555      85                N/A     4/ 5
27 SE WRIGHTSVLE 0508   85 85  200/ 12/ 16 1016.7
5 SE WRIGHTSVLE  0508   81 80  240/  6/  8 1017.4
225 S CAPE HAT   0550   85 85  220/ 12/ 14 1019.4    3/ 4   2/ 8
41 SE CHARLESTON 0550   85 86  200/ 19/ 23 1016.1    4/ 5

$$



USA.gov is the U.S. government's official web portal to all federal, state and local government web resources and services.